Regional Weather Roundup
Issued by NWS

Home | Current Version | Previous Version | Graphics & Text | Print | Product List | Glossary On
Versions: 1 2 3 4 5 6 7 8 9 10 11 12 13 14 15 16 17 18 19 20 21 22 23 24 25 26 27
000
ASUS45 KTFX 262210
RWRMT
MONTANA REGIONAL WEATHER ROUNDUP
NATIONAL WEATHER SERVICE GREAT FALLS MT
400 PM MDT THU MAY 26 2016

NOTE: "FAIR" INDICATES FEW OR NO CLOUDS BELOW 12000 FEET WITH NO
SIGNIFICANT WEATHER AND/OR OBSTRUCTIONS TO VISIBILITY.

MTZ001>007-043-262300-
WEST OF THE DIVIDE

CITY           SKY/WX    TMP DP  RH WIND       PRES   REMARKS
KALISPELL      HVY RAIN  54  52  93 SE10      29.94F FOG
MISSOULA       LGT RAIN  60  47  61 W8        29.96F
BUTTE          PTSUNNY   62  36  37 NW15      29.97F
MULLAN PASS    CLOUDY    44  40  85 NW7       30.05S
ANACONDA         N/A     61  39  44 E7        29.96
DEER LODGE       N/A     61  43  51 N6        29.96F
EUREKA           N/A     66  43  42 CALM      29.90F
HAMILTON         N/A     66  39  37 CALM      29.92F
LIBBY            N/A     68  43  40 W3        29.93S
$$

MTZ008-052>055-262300-
SOUTHWEST MONTANA

CITY           SKY/WX    TMP DP  RH WIND       PRES   REMARKS
BOZEMAN        MOSUNNY   60  45  57 NE13      29.96S
DILLON         CLOUDY    63  35  35 NW18      29.94F
$$

MTZ009-010-012-014-046-048-049-054-262300-
EAST SLOPES AND CENTRAL MONTANA

CITY           SKY/WX    TMP DP  RH WIND       PRES   REMARKS
CUT BANK         N/A     60  45  57 NE6       29.90F
GREAT FALLS    SUNNY     66  44  45 W5        29.90F
MALMSTROM AFB  PTSUNNY   65  46  51 SW2       29.91S
HELENA         LGT RAIN  55  48  77 NW5       29.97R
CHOTEAU          N/A     55  48  76 N9        29.94R
$$

MTZ011-013-016-021-045-047-050-051-262300-
NORTH CENTRAL MONTANA

CITY           SKY/WX    TMP DP  RH WIND       PRES   REMARKS
HAVRE            N/A    N/A N/A N/A MISG      29.89
LEWISTOWN      MOSUNNY   64  44  48 N13G21    29.91F
N BAR RANCH    CLOUDY    55  43  62 N14G21    29.93F
CHINOOK          N/A     64  48  55 CALM      29.89F
$$

MTZ017>020-022>027-061-062-262300-
NORTHEAST MONTANA

CITY           SKY/WX    TMP DP  RH WIND       PRES   REMARKS
GLASGOW        CLOUDY    58  53  84 NW13      29.80F
JORDAN           N/A     56  49  77 N15       29.84F
SIDNEY         CLOUDY    65  49  56 NW12      29.79S
WOLF POINT     CLOUDY    62  51  67 W8        29.80F
$$

MTZ028>42-056>058-262300-
SOUTHCENTRAL AND SOUTHEAST MONTANA

CITY           SKY/WX    TMP DP  RH WIND       PRES   REMARKS
BAKER          PTSUNNY   59  41  51 W22       29.87R
BILLINGS       CLOUDY    63  39  41 W12       29.90F
LIVINGSTON     LGT RAIN  53  46  77 N12       29.97R
MILES CITY     CLOUDY    63  46  54 SW12      29.84S
FORSYTH          N/A     63  41  45 W8        29.85F
$$

REGIONAL REPORTS...DAKOTAS

CITY           SKY/WX    TMP DP  RH WIND       PRES   REMARKS
WILLISTON      LGT RAIN  63  49  60 NW8       29.79S
MINOT          MOSUNNY   71  52  50 N9        29.77F
DICKINSON      PTSUNNY   64  39  39 W10       29.78F
BEACH          PTSUNNY   54  50  87 SW9       29.87R
CROSBY           N/A     57  57 100 NE15      29.84F
WATFORD CITY   PTSUNNY   59  50  72 SW21      29.80R
BISMARCK       PTSUNNY   71  48  43 NW13G23   29.76F
GRAND FORKS    MOSUNNY   70  54  56 W14G23    29.74S
FARGO          MOSUNNY   76  51  41 W16G23    29.76F
BUFFALO SD       N/A     65  41  41 N16G24    29.77F
RAPID CITY     LGT RAIN  59  50  72 E8        29.85R
$$

REGIONAL REPORTS...WYOMING/IDAHO/WASHINGTON

CITY           SKY/WX    TMP DP  RH WIND       PRES   REMARKS
GILLETTE       MOSUNNY   62  38  40 W12       29.88F
SHERIDAN       CLOUDY    58  44  60 NW13      29.92F
BUFFALO WY     CLOUDY    58  41  53 N17       29.95S
CODY           CLOUDY    59  45  58 N9        29.96R
YELLOWSTONE LA   N/A     47  35  63 CALM      30.07F
IDAHO FALLS    MOSUNNY   66  38  35 W8        29.96F
SALMON         CLOUDY    70  37  30 CALM      29.90F
BOISE          PTSUNNY   73  34  23 VRB6      29.96F
SPOKANE        CLOUDY    63  43  48 S13       29.99F
$$

REGIONAL REPORTS...ALBERTA

CITY           SKY/WX    TMP DP  RH WIND       PRES   REMARKS
EDMONTON       MOSUNNY   64  50  59 W3        29.81F
CALGARY        PTSUNNY   68  45  42 S14       29.83F
LETHBRIDGE     LGT RAIN  55  52  88 SW6       29.88F
WATERTON GATE    N/A     61  41  48 SW16G24     N/A
CARDSTON         N/A     54  48  82 S5          N/A
MILK RIVER       N/A     64  43  45 S2          N/A
ONEFOUR          N/A     64  46  52 SE9         N/A
$$

REGIONAL REPORTS...SASKATCHEWAN

CITY           SKY/WX    TMP DP  RH WIND       PRES   REMARKS
SWIFT CURRENT  PTSUNNY   61  48  63 E13       29.89F
REGINA         CLOUDY    59  50  72 S3        29.87F
SASKATOON      PTSUNNY   72  46  40 E6        29.86F
CYPRESS HILLS    N/A     57  46  67 NE7         N/A
ROCKGLEN         N/A     54  52  94 NE6         N/A
ASSINIBOIA       N/A     68  48  49 W1          N/A
$$




USA.gov is the U.S. government's official web portal to all federal, state and local government web resources and services.